• In Uzbekistan
  • List of Countries
  • For 7 days
  • Water Temperature
  • Weather Map
  • Weather Widgets
  • user-avatar
    Login

    Hourly Weather Bolshoy Kudin

    Today, 22 September, Sunday

    Time Temperature Precipitation Wind Pressure Humidity
    00:00 +10°C° 0 mm 6 mps 740 mmHg 92%
    01:00 +10°C° 0 mm 6 mps 740 mmHg 91%
    02:00 +10°C° 0 mm 7 mps 740 mmHg 90%
    03:00 +10°C° 0 mm 6 mps 740 mmHg 90%
    04:00 +9°C° 0 mm 6 mps 740 mmHg 90%
    05:00 +9°C° 0 mm 6 mps 740 mmHg 90%
    06:00 +9°C° 0.3 mm 6 mps 740 mmHg 90%
    07:00 +9°C° 0.3 mm 6 mps 740 mmHg 90%
    08:00 +9°C° 0.3 mm 7 mps 741 mmHg 90%
    09:00 +9°C° 0.4 mm 6 mps 741 mmHg 89%
    10:00 +9°C° 0.4 mm 6 mps 741 mmHg 88%
    11:00 +8°C° 0.4 mm 5 mps 741 mmHg 88%
    12:00 +9°C° 0.1 mm 5 mps 741 mmHg 85%
    13:00 +9°C° 0.1 mm 5 mps 741 mmHg 81%
    14:00 +10°C° 0.1 mm 5 mps 742 mmHg 78%
    15:00 +9°C° 0.2 mm 5 mps 742 mmHg 78%
    16:00 +8°C° 0.2 mm 4 mps 742 mmHg 79%
    17:00 +8°C° 0.2 mm 4 mps 743 mmHg 79%
    18:00 +7°C° 0 mm 4 mps 743 mmHg 80%
    19:00 +7°C° 0 mm 3 mps 744 mmHg 81%
    20:00 +4°C° 0 mm 3 mps 744 mmHg 82%
    21:00 +4°C° 0 mm 3 mps 745 mmHg 84%
    22:00 +3°C° 0 mm 3 mps 745 mmHg 85%
    23:00 +2°C° 0 mm 3 mps 746 mmHg 87%

    Tomorrow, 23 September, Monday

    Time Temperature Precipitation Wind Pressure Humidity
    00:00 +2°C° 0 mm 2 mps 746 mmHg 88%
    01:00 +2°C° 0 mm 2 mps 747 mmHg 89%
    02:00 +2°C° 0 mm 2 mps 747 mmHg 90%
    03:00 +1°C° 0 mm 2 mps 748 mmHg 91%
    04:00 +1°C° 0 mm 2 mps 748 mmHg 91%
    05:00 +1°C° 0 mm 2 mps 748 mmHg 92%
    06:00 +2°C° 0 mm 2 mps 748 mmHg 88%
    07:00 +3°C° 0 mm 2 mps 749 mmHg 83%
    08:00 +4°C° 0 mm 2 mps 749 mmHg 79%
    09:00 +5°C° 0 mm 2 mps 749 mmHg 72%
    10:00 +7°C° 0 mm 2 mps 749 mmHg 65%
    11:00 +8°C° 0 mm 2 mps 749 mmHg 57%
    12:00 +9°C° 0 mm 2 mps 749 mmHg 54%
    13:00 +9°C° 0 mm 2 mps 749 mmHg 50%
    14:00 +10°C° 0 mm 2 mps 748 mmHg 47%
    15:00 +9°C° 0 mm 2 mps 748 mmHg 51%
    16:00 +9°C° 0 mm 1 mps 748 mmHg 56%
    17:00 +9°C° 0 mm 1 mps 748 mmHg 60%
    18:00 +7°C° 0 mm 1 mps 748 mmHg 63%
    19:00 +6°C° 0 mm 1 mps 748 mmHg 65%
    20:00 +4°C° 0 mm 0 mps 748 mmHg 68%
    21:00 +4°C° 0 mm 0 mps 748 mmHg 68%
    22:00 +3°C° 0 mm 0 mps 749 mmHg 69%
    23:00 +3°C° 0 mm 0 mps 749 mmHg 70%

    Day after tomorrow, 24 September, Tuesday

    Time Temperature Precipitation Wind Pressure Humidity
    00:00 +3°C° 0 mm 0 mps 749 mmHg 70%
    01:00 +4°C° 0 mm 1 mps 749 mmHg 71%
    02:00 +4°C° 0 mm 1 mps 749 mmHg 72%
    03:00 +4°C° 0 mm 1 mps 748 mmHg 73%
    04:00 +3°C° 0 mm 1 mps 748 mmHg 73%
    05:00 +3°C° 0 mm 1 mps 748 mmHg 74%
    06:00 +3°C° 0 mm 0 mps 748 mmHg 72%
    07:00 +4°C° 0 mm 0 mps 748 mmHg 69%
    08:00 +5°C° 0 mm 0 mps 748 mmHg 66%
    09:00 +6°C° 0 mm 0 mps 748 mmHg 62%
    10:00 +8°C° 0 mm 0 mps 748 mmHg 58%
    11:00 +9°C° 0 mm 0 mps 748 mmHg 54%
    12:00 +10°C° 0 mm 0 mps 748 mmHg 51%
    13:00 +10°C° 0 mm 0 mps 747 mmHg 49%
    14:00 +11°C° 0 mm 0 mps 747 mmHg 46%
    15:00 +11°C° 0 mm 1 mps 747 mmHg 50%
    16:00 +10°C° 0 mm 1 mps 747 mmHg 54%
    17:00 +9°C° 0 mm 1 mps 746 mmHg 58%
    18:00 +8°C° 0 mm 1 mps 746 mmHg 60%
    19:00 +7°C° 0 mm 1 mps 746 mmHg 63%
    20:00 +4°C° 0 mm 2 mps 746 mmHg 65%
    21:00 +4°C° 0 mm 2 mps 746 mmHg 67%
    22:00 +4°C° 0 mm 2 mps 746 mmHg 68%
    23:00 +3°C° 0 mm 2 mps 746 mmHg 70%

    25 September, Wednesday

    Time Temperature Precipitation Wind Pressure Humidity
    00:00 +3°C° 0 mm 2 mps 746 mmHg 71%
    01:00 +3°C° 0 mm 2 mps 746 mmHg 72%
    02:00 +3°C° 0 mm 2 mps 746 mmHg 73%
    03:00 +2°C° 0 mm 2 mps 746 mmHg 74%
    04:00 +1°C° 0 mm 3 mps 745 mmHg 75%
    05:00 +1°C° 0 mm 3 mps 745 mmHg 77%
    06:00 +2°C° 0 mm 3 mps 745 mmHg 73%
    07:00 +3°C° 0 mm 3 mps 745 mmHg 70%
    08:00 +4°C° 0 mm 4 mps 745 mmHg 66%
    09:00 +6°C° 0 mm 4 mps 744 mmHg 62%
    10:00 +8°C° 0 mm 5 mps 744 mmHg 58%
    11:00 +9°C° 0 mm 5 mps 744 mmHg 54%
    12:00 +10°C° 0 mm 5 mps 744 mmHg 54%
    13:00 +11°C° 0 mm 6 mps 743 mmHg 54%
    14:00 +11°C° 0 mm 6 mps 743 mmHg 54%
    15:00 +11°C° 0 mm 6 mps 742 mmHg 57%
    16:00 +10°C° 0 mm 5 mps 742 mmHg 60%
    17:00 +10°C° 0 mm 5 mps 741 mmHg 63%
    18:00 +10°C° 0 mm 5 mps 741 mmHg 66%
    19:00 +9°C° 0 mm 5 mps 741 mmHg 68%
    20:00 +9°C° 0 mm 5 mps 740 mmHg 70%
    21:00 +9°C° 0.1 mm 5 mps 740 mmHg 73%
    22:00 +9°C° 0.1 mm 5 mps 739 mmHg 77%
    23:00 +9°C° 0.1 mm 5 mps 739 mmHg 80%

    26 September, Thursday

    Time Temperature Precipitation Wind Pressure Humidity
    00:00 +9°C° 0.4 mm 5 mps 739 mmHg 85%
    01:00 +10°C° 0.4 mm 5 mps 738 mmHg 89%
    02:00 +11°C° 0.4 mm 4 mps 738 mmHg 93%
    03:00 +11°C° 0.3 mm 4 mps 738 mmHg 94%
    04:00 +11°C° 0.3 mm 4 mps 738 mmHg 94%
    05:00 +11°C° 0.3 mm 4 mps 738 mmHg 94%
    06:00 +11°C° 0.1 mm 4 mps 738 mmHg 94%
    07:00 +11°C° 0.1 mm 3 mps 738 mmHg 95%
    08:00 +11°C° 0.1 mm 3 mps 737 mmHg 95%
    09:00 +11°C° 0.4 mm 3 mps 738 mmHg 95%
    10:00 +13°C° 0.4 mm 2 mps 738 mmHg 96%
    11:00 +13°C° 0.4 mm 2 mps 738 mmHg 96%
    12:00 +13°C° 0.9 mm 2 mps 738 mmHg 96%
    13:00 +13°C° 0.9 mm 2 mps 738 mmHg 96%
    14:00 +13°C° 0.9 mm 2 mps 738 mmHg 97%
    15:00 +13°C° 0.1 mm 2 mps 738 mmHg 97%
    16:00 +13°C° 0.1 mm 2 mps 738 mmHg 96%
    17:00 +13°C° 0.1 mm 2 mps 738 mmHg 96%
    18:00 +12°C° 0 mm 2 mps 738 mmHg 97%
    19:00 +12°C° 0 mm 1 mps 738 mmHg 97%
    20:00 +11°C° 0 mm 1 mps 738 mmHg 98%
    21:00 +10°C° 0 mm 2 mps 739 mmHg 97%
    22:00 +10°C° 0 mm 2 mps 739 mmHg 97%
    23:00 +10°C° 0 mm 2 mps 739 mmHg 97%

    27 September, Friday

    Time Temperature Precipitation Wind Pressure Humidity
    00:00 +10°C° 0.1 mm 2 mps 739 mmHg 96%
    01:00 +9°C° 0.1 mm 2 mps 739 mmHg 96%
    02:00 +9°C° 0.1 mm 2 mps 739 mmHg 95%
    03:00 +9°C° 0.1 mm 3 mps 739 mmHg 95%
    04:00 +8°C° 0.1 mm 3 mps 739 mmHg 95%
    05:00 +8°C° 0.1 mm 3 mps 739 mmHg 95%
    06:00 +8°C° 0.1 mm 3 mps 740 mmHg 94%
    07:00 +8°C° 0.1 mm 3 mps 740 mmHg 94%
    08:00 +8°C° 0.1 mm 3 mps 740 mmHg 94%
    09:00 +7°C° 0.2 mm 3 mps 740 mmHg 93%
    10:00 +7°C° 0.2 mm 3 mps 741 mmHg 92%
    11:00 +6°C° 0.2 mm 4 mps 741 mmHg 92%
    12:00 +6°C° 0.1 mm 4 mps 742 mmHg 90%
    13:00 +6°C° 0.1 mm 4 mps 742 mmHg 88%
    14:00 +6°C° 0.1 mm 4 mps 742 mmHg 87%
    15:00 +6°C° 0 mm 4 mps 742 mmHg 86%
    16:00 +6°C° 0 mm 4 mps 743 mmHg 85%
    17:00 +6°C° 0 mm 4 mps 743 mmHg 84%
    18:00 +5°C° 0 mm 4 mps 744 mmHg 85%
    19:00 +5°C° 0 mm 4 mps 744 mmHg 86%
    20:00 +5°C° 0 mm 3 mps 745 mmHg 87%
    21:00 +4°C° 0 mm 3 mps 745 mmHg 88%
    22:00 +4°C° 0 mm 3 mps 745 mmHg 89%
    23:00 +4°C° 0 mm 3 mps 746 mmHg 89%
    Show more